Weather History for KANB - December, 2013

Change the Weather History Date:

Saturday, December 21, 2013

  Actual Average Record
Temperature  
Mean Temperature 68 °F 44 °F  
Max Temperature 77 °F 55 °F 77 °F (2013)
Min Temperature 58 °F 34 °F 16 °F (1945)
Degree Days  
Heating Degree Days 0    
Month to date heating degree days 327  
Since 1 July heating degree days 856  
Cooling Degree Days 2    
Growing Degree Days 17 (Base 50)    
Moisture  
Dew Point 62 °F    
Average Humidity 78    
Maximum Humidity 87    
Minimum Humidity 69    
Precipitation  
Precipitation 0.05 in 0.12 in 1.38 in (1962)
Month to date precipitation 5.18 2.89  
Year to date precipitation 71.24 48.44  
Sea Level Pressure  
Sea Level Pressure 29.93 in    
Wind  
Wind Speed 9 mph (SSE)    
Max Wind Speed 22 mph    
Max Gust Speed 37 mph    
Visibility 10 miles    
Events Rain    
T = Trace of Precipitation, MM = Missing Value Source: NWS Daily Summary

Daily Weather History Graph

Daily Weather History Graph

Search for Another Location

Airport or City:

Trip Planner

Search our weather history database for the weather conditions in past years. The results will help you decide how hot, cold, wet, or windy it might be!

Date:

Astronomy

Dec. 21, 2013 Rise Set
Actual Time 6:44 AM CST 4:39 PM CST
Civil Twilight 6:16 AM CST 5:07 PM CST
Nautical Twilight 5:45 AM CST 5:38 PM CST
Astronomical Twilight 5:14 AM CST 6:08 PM CST
Moon 8:44 PM CST (12/21) 9:19 AM CST (12/21)
Length of Visible Light 10h 50m
Length of Day
9h 55m
Waning Gibbous, 84% of the Moon is Illuminated
Dec 21
Waning Gibbous
Dec 25
Last Quarter
Jan 1
New
Jan 7
First Quarter
Jan 15
Full

Hourly Weather History & Observations

Time (CST) Temp. Dew Point Humidity Pressure Visibility Wind Dir Wind Speed Gust Speed Precip Events Conditions
12:39 AM 61.0 °F 55.0 °F 81% 30.04 in 10.0 mi ENE 3.5 mph - N/A   Mostly Cloudy
12:53 AM 59.0 °F 55.0 °F 87% 30.03 in 10.0 mi Calm Calm - N/A   Scattered Clouds
1:53 AM 61.0 °F 55.9 °F 83% 30.02 in 10.0 mi NE 4.6 mph - N/A   Clear
2:53 AM 59.0 °F 55.0 °F 87% 30.00 in 10.0 mi NE 5.8 mph - N/A   Partly Cloudy
3:53 AM 60.1 °F 55.9 °F 86% 29.99 in 10.0 mi NE 5.8 mph - N/A   Mostly Cloudy
4:53 AM 63.0 °F 57.9 °F 84% 29.99 in 10.0 mi ENE 5.8 mph - N/A   Overcast
5:30 AM 64.0 °F 60.1 °F 87% 29.98 in 10.0 mi Variable 5.8 mph - N/A   Overcast
5:53 AM 66.9 °F 62.1 °F 84% 29.98 in 10.0 mi SSE 11.5 mph 24.2 mph N/A   Overcast
6:12 AM 66.0 °F 61.0 °F 84% 29.98 in 10.0 mi SSE 10.4 mph 20.7 mph N/A   Overcast
6:19 AM 66.0 °F 61.0 °F 84% 29.98 in 10.0 mi SSE 10.4 mph 23.0 mph N/A   Overcast
6:40 AM 64.0 °F 60.1 °F 87% 29.98 in 10.0 mi Variable 4.6 mph - N/A   Overcast
6:53 AM 64.0 °F 60.1 °F 87% 29.97 in 10.0 mi East 4.6 mph - N/A   Overcast
7:53 AM 64.9 °F 61.0 °F 87% 29.97 in 10.0 mi ESE 8.1 mph - N/A   Overcast
8:02 AM 64.9 °F 61.0 °F 87% 29.97 in 10.0 mi Variable 4.6 mph - N/A   Overcast
8:53 AM 64.9 °F 61.0 °F 87% 29.98 in 8.0 mi ENE 4.6 mph - 0.00 in   Overcast
9:24 AM 66.9 °F 63.0 °F 87% 29.97 in 5.0 mi SSE 6.9 mph - N/A   Overcast
9:53 AM 69.1 °F 63.0 °F 81% 29.96 in 10.0 mi South 12.7 mph 18.4 mph N/A   Overcast
10:05 AM 69.1 °F 64.0 °F 84% 29.96 in 10.0 mi South 11.5 mph 19.6 mph N/A   Overcast
10:53 AM 70.0 °F 64.0 °F 81% 29.92 in 10.0 mi South 10.4 mph 21.9 mph N/A   Overcast
11:53 AM 73.0 °F 64.0 °F 73% 29.90 in 10.0 mi South 11.5 mph 25.3 mph N/A   Overcast
12:35 PM 73.9 °F 64.0 °F 71% 29.90 in 10.0 mi South 10.4 mph 24.2 mph N/A   Overcast
12:53 PM 75.0 °F 64.0 °F 69% 29.88 in 10.0 mi South 12.7 mph 21.9 mph N/A   Mostly Cloudy
1:53 PM 75.9 °F 64.0 °F 67% 29.86 in 10.0 mi South 16.1 mph 25.3 mph N/A   Overcast
2:53 PM 75.9 °F 64.0 °F 67% 29.85 in 10.0 mi South 10.4 mph 36.8 mph N/A   Scattered Clouds
3:53 PM 75.0 °F 64.0 °F 69% 29.86 in 10.0 mi South 10.4 mph 26.5 mph N/A   Mostly Cloudy
4:53 PM 73.9 °F 64.0 °F 71% 29.86 in 10.0 mi SSE 9.2 mph - N/A   Overcast
5:53 PM 73.0 °F 64.9 °F 76% 29.86 in 10.0 mi South 9.2 mph 17.3 mph 0.00 in   Overcast
6:42 PM 71.1 °F 66.9 °F 87% 29.89 in 10.0 mi South 6.9 mph - 0.02 in   Overcast
6:53 PM 72.0 °F 66.0 °F 81% 29.87 in 10.0 mi SSW 9.2 mph 17.3 mph 0.02 in   Overcast
7:53 PM 72.0 °F 66.0 °F 81% 29.87 in 10.0 mi South 8.1 mph 21.9 mph 0.00 in Rain Light Rain
8:00 PM 72.0 °F 66.0 °F 81% 29.88 in 10.0 mi South 10.4 mph 18.4 mph 0.00 in   Overcast
8:53 PM 72.0 °F 66.0 °F 81% 29.86 in 10.0 mi South 11.5 mph 23.0 mph 0.01 in   Overcast
9:53 PM 72.0 °F 66.9 °F 84% 29.88 in 10.0 mi South 8.1 mph - 0.00 in   Overcast
10:18 PM 72.0 °F 66.0 °F 81% 29.89 in 10.0 mi South 8.1 mph 18.4 mph N/A   Overcast
10:53 PM 72.0 °F 66.0 °F 81% 29.88 in 8.0 mi SSW 10.4 mph - 0.01 in Rain Light Rain
11:53 PM 72.0 °F 64.9 °F 78% 29.86 in 10.0 mi South 10.4 mph - 0.01 in   Mostly Cloudy